Regional Weather Roundup
Issued by NWS Little Rock, AR

Home | Current Version | Previous Version | Graphics & Text | Print | Product List | Glossary On
Versions: 1 2 3 4 5 6 7 8 9 10 11 12 13 14 15 16 17 18 19 20 21 22 23 24 25 26 27 28
000
ASUS44 KLZK 260905
RWRLZK

WEATHER ROUNDUP FOR ARKANSAS
NATIONAL WEATHER SERVICE LITTLE ROCK AR
400 AM CDT TUE JUL 26 2016

NOTE: "FAIR" INDICATES FEW OR NO CLOUDS BELOW 12,000 FEET WITH NO
SIGNIFICANT WEATHER AND/OR OBSTRUCTIONS TO VISIBILITY.

ARZ001-003-010-029-261000-
NORTHWEST ARKANSAS

CITY           SKY/WX    TMP DP  RH WIND       PRES   REMARKS
FAYETTEVILLE   PTCLDY    72  72 100 CALM      30.01S
FORT SMITH     CLOUDY    76  69  79 E6        29.96S
HARRISON       CLOUDY    71  71 100 SE5       30.03R
BENTONVILLE    CLOUDY    75  70  83 NE3       30.02R
ROGERS         CLOUDY    75  72  90 E8        30.02S
SILOAM SPGS    MOCLDY    73  64  73 E3        30.01S
HIGHFILL       PTCLDY    75  73  93 CALM      30.01S
$$

ARZ004-005-016-261000-
NORTH CENTRAL ARKANSAS

CITY           SKY/WX    TMP DP  RH WIND       PRES   REMARKS
BATESVILLE     CLOUDY    73  72  94 CALM      29.99S
FLIPPIN        CLOUDY    73  70  88 CALM      29.98S
MTN HOME       CLOUDY    73  72  96 CALM      30.00F
$$

ARZ040-041-261000-
WEST CENTRAL ARKANSAS

CITY           SKY/WX    TMP DP  RH WIND       PRES   REMARKS
MENA           PTCLDY    75  73  94 CALM      29.99S
MOUNT IDA      MOCLDY    74  74 100 CALM      29.96S FOG
$$

ARZ009-017-025-026-028-261000-
NORTHEAST ARKANSAS

CITY           SKY/WX    TMP DP  RH WIND       PRES   REMARKS
CORNING          N/A     77  77 100 NE6       30.00R
JONESBORO      CLEAR     78  76  93 E6        29.98R
NEWPORT        CLEAR     76  76 100 N3        29.99R FOG
WALNUT RIDGE   PTCLDY    77  73  88 NE3       29.97S
BLYTHEVILLE    CLEAR     76  74  93 NE3       29.99R
$$

ARZ022-023-033-042-044-261000-
CENTRAL ARKANSAS

CITY           SKY/WX    TMP DP  RH WIND       PRES   REMARKS
LITTLE ROCK    PTCLDY    82  76  81 N5        29.96S HX  89
N LITTLE ROCK    N/A     77  74  90 CALM      29.93S
JACKSONVILLE   CLOUDY    78  77  96 CALM      29.96S
SEARCY         PTCLDY    76  75  97 CALM      29.98S
HOT SPRINGS    CLOUDY    77  75  93 CALM      29.97S
RUSSELLVILLE   CLOUDY    74  74 100 CALM      29.96F
$$

ARZ036-261000-
EAST ARKANSAS

CITY           SKY/WX    TMP DP  RH WIND       PRES   REMARKS
WEST MEMPHIS   CLEAR     77  76  96 CALM      29.96R
$$

ARZ050-053-066-070-073-261000-
SOUTHWEST ARKANSAS

CITY           SKY/WX    TMP DP  RH WIND       PRES   REMARKS
CAMDEN         CLEAR     73  70  88 CALM      29.94S
TEXARKANA      CLEAR     76  74  93 SE3       29.96R
EL DORADO      CLEAR     75  74  96 CALM      29.95R
DE QUEEN       PTCLDY    75  75 100 E3        29.93R
$$

ARZ056-057-069-261000-
SOUTHEAST ARKANSAS

CITY           SKY/WX    TMP DP  RH WIND       PRES   REMARKS
PINE BLUFF     PTCLDY    76  75  97 CALM      29.96S
STUTTGART      PTCLDY    81  73  78 E6        29.96S HX  85
MONTICELLO     PTCLDY    78  75  90 CALM      29.96S

$$






USA.gov is the U.S. government's official web portal to all federal, state and local government web resources and services.